{"data":{"norad_id":59250,"epoch":"2026-09-20T22:03:20.520000Z","epoch_age_seconds":122650,"freshness":"FRESH","line1":"1 59250U 24049V   26263.91898750  .00002956  00000+0  11688-3 0  9994","line2":"2 59250  43.0023 109.7496 0001415 266.5305  93.5385 15.27589405142386","mean_motion":15.27589405,"eccentricity":0.0001415,"inclination_deg":43.0023,"raan_deg":109.7496,"arg_perigee_deg":266.5305,"mean_anomaly_deg":93.5385,"bstar":0.00011688,"rev_number":14238,"period_min":94.266168335987,"perigee_km":482.05008038302,"apogee_km":483.9917880784,"semimajor_km":6861.1579342307,"source":"CELESTRAK","updated_at":"2026-09-21T09:00:34.078780Z"}}